Regional Weather Roundup
Issued by NWS

Home | Current Version | Previous Version | Text Only | Print | Product List | Glossary Off
Versions: 1 2 3 4 5 6 7 8 9 10 11 12 13 14 15 16 17 18 19 20 21 22 23 24 25 26 27 28 29 30 31 32 33 34 35 36 37 38 39 40 41 42 43 44 45 46 47 48 49 50

000
ASUS45 KBOU 021510
RWRCO

WEATHER ROUNDUP FOR COLORADO
NATIONAL WEATHER SERVICE PUEBLO CO
900 AM MDT SUN AUG 02 2015

NOTE: "FAIR" INDICATES FEW OR NO CLOUDS BELOW 12000 FEET WITH NO
SIGNIFICANT WEATHER AND/OR OBSTRUCTIONS TO VISIBILITY.

COZ001>005-013-030-031-021600-
...NORTHWEST COLORADO...

CITY           SKY/WX    TMP DP  RH WIND       PRES   REMARKS
CRAIG          SUNNY     71  45  39 NE6       30.21F
HAYDEN         SUNNY     64  39  39 E9        30.24S
MEEKER         MOSUNNY   66  44  45 CALM      30.23S
MOUNT WERNER   NOT AVBL
STEAMBOAT SPGS FAIR      60  43  53 CALM      30.26F
WALDEN         FAIR      61  37  41 CALM      30.34S
$$

COZ006>008-011-021600-
...WEST CENTRAL VALLEYS...

CITY           SKY/WX    TMP DP  RH WIND       PRES   REMARKS
GRAND JUNCTION CLOUDY    73  52  47 E12       30.13R
MONTROSE       CLOUDY    66  56  70 S7        30.23R
EAGLE          MOSUNNY   64  45  48 CALM      30.28S
RIFLE          PTSUNNY   69  50  50 N3        30.18S
DELTA          NOT AVBL
NUCLA          LGT RAIN  61  59  94 SE3       30.29S
$$

COZ017>023-064>068-021600-
...SOUTHWEST COLORADO...

CITY           SKY/WX    TMP DP  RH WIND       PRES   REMARKS
DURANGO        PTSUNNY   64  53  67 CALM      30.27R
CORTEZ         LGT RAIN  62  60  93 NE5       30.23R
PAGOSA SPRINGS FAIR      60  53  78 CALM      30.33S
TELLURIDE      CLOUDY    54  53  95 CALM      30.44R
WOLF CREEK PAS NOT AVBL
$$

COZ009-010-012-014-032>034-037-058>063-021600-
...CENTRAL COLORADO...

CITY           SKY/WX    TMP DP  RH WIND       PRES   REMARKS
ASPEN          CLOUDY    61  49  64 CALM      30.33R
BUENA VISTA    CLOUDY    62  46  56 CALM      30.33S
COPPER MTN     PTSUNNY   57  34  41 W6        30.64R
BERTHOUD PASS  CLOUDY    46  36  66 N6        30.68S
COTTONWOOD PAS CLOUDY    61  43  51 CALM      30.46S
GUNNISON       CLOUDY    57  52  82 NE3       30.37F
KREMMLING      MOSUNNY   61  37  41 CALM      30.33F
LEADVILLE      CLOUDY    55  43  63 CALM      30.46S
MONARCH PASS   CLOUDY    52  37  58 CALM      30.72S
SALIDA         PTSUNNY   66  47  51 CALM      30.38S
NIWOT RIDGE    NOT AVBL
SUNLIGHT       CLOUDY    57  43  58 CALM      30.57R
WILKERSON PASS CLOUDY    55  37  50 N3        30.60R
$$

COZ069>075-021600-
...SAN LUIS VALLEY/SANGRE DE CRISTO MOUNTAINS...

CITY           SKY/WX    TMP DP  RH WIND       PRES   REMARKS
ALAMOSA        MOSUNNY   63  51  65 CALM      30.31S
LA VETA PASS   MOSUNNY   50  45  81 MISG      30.48R
SAGUACHE       PTSUNNY   63  50  63 W3        30.35R
$$

COZ035-036-038>040-021600-
...NORTHERN COLORADO FRONT RANGE...

CITY           SKY/WX    TMP DP  RH WIND       PRES   REMARKS
DENVER INTL AP PTSUNNY   76  52  43 W3        30.11R
DMNS CITY PARK NOT AVBL
AURORA         MOSUNNY   74  52  45 W6        30.13S
FRONT RANGE AP MOSUNNY   75  52  43 MISG      30.12S
ERIE MUNI ARPT FAIR      78  52  41 SE5       30.08S
BOULDER MUN AP FAIR      77  48  36 E3        30.09R
CENTENNIAL     PTSUNNY   76  49  38 CALM      30.14S
BROOMFIELD     PTSUNNY   73  52  46 S3        30.13R
LOVELAND       SUNNY     73  55  53 N3        30.09S
LONGMONT       FAIR      78  49  36 E5        30.09S
$$

COZ041-046-047-076>085-087-088-021600-
...PIKES PEAK/PALMER DIVIDE AND SOUTHERN FOOTHILLS...

CITY           SKY/WX    TMP DP  RH WIND       PRES   REMARKS
COLO. SPRINGS  MOSUNNY   78  48  34 SE8       30.18R
A. F. ACADEMY  LGT RAIN  81  45  28 N6        30.19R
ELLICOTT       FAIR     N/A N/A N/A S8        30.16R
FALCON         FAIR      77  45  32 E7        30.24R
FORT CARSON    MOSUNNY   77  49  38 VRB2      30.14R
LIMON          SUNNY     80  50  34 CALM      30.12R
MONUMENT HILL  NOT AVBL
TRINIDAD       MOSUNNY   74  51  44 W7        30.16S
$$

COZ042>045-048>051-090-091-021600-
...NORTHEAST COLORADO...

CITY           SKY/WX    TMP DP  RH WIND       PRES   REMARKS
GREELEY ARPT   SUNNY     72  55  56 NW3       30.07S
AKRON          SUNNY     81  54  39 W9        30.06S
BURLINGTON     SUNNY     80  65  59 S5        30.05S
WRAY           FAIR      80  66  62 SE5       30.01S
STERLING       FAIR      72  61  68 SW5       30.02R
HOLYOKE        FAIR      79  64  61 S3        30.01S
FORT MORGAN    FAIR      71  55  57 CALM      30.06S
$$

COZ086-089-092>099-021600-
...SOUTHEAST COLORADO...

CITY           SKY/WX    TMP DP  RH WIND       PRES   REMARKS
PUEBLO         SUNNY     74  57  55 S3        30.07S
LA JUNTA       SUNNY     82  53  36 CALM      30.05S
LAMAR          SUNNY     81  60  48 VRB5      30.00S
SPRINGFIELD      N/A     78  61  55 W5        30.05S
$$



USA.gov is the U.S. government's official web portal to all federal, state and local government web resources and services.